Regional Weather Roundup
Issued by NWS

Home | Current Version | Previous Version | Graphics & Text | Print | Product List | Glossary On
Versions: 1 2 3 4 5 6 7 8 9 10 11 12 13 14 15 16 17 18 19 20 21 22 23 24 25 26 27 28 29 30 31 32 33 34 35 36 37 38 39 40 41 42 43 44 45 46 47 48 49 50
576
ASUS43 KDTX 271801
RWRMI
MICHIGAN HOURLY REGIONAL WEATHER ROUNDUP
NATIONAL WEATHER SERVICE DETROIT/PONTIAC MI
200 PM EDT TUE SEP 27 2016

NOTE: "FAIR" INDICATES FEW OR NO CLOUDS BELOW 12,000 FEET WITH NO
SIGNIFICANT WEATHER AND/OR OBSTRUCTION TO VISIBILITY.

MIZ047>049-052>055-059>063-066>070-074>076-081>083-271900-
SOUTHEAST LOWER MICHIGAN

CITY           SKY/WX    TMP DP  RH WIND       PRES   REMARKS
ADRIAN         SUNNY     67  32  27 W16G28    29.77F
6HR MIN TEMP:  45; 6HR MAX TEMP:  68;

ALMA           CLOUDY    62  47  58 W16G30    29.69S
ANN ARBOR      MOSUNNY   68  39  34 SW18G33   29.74F
BAD AXE        CLOUDY    59  45  58 W10G20    29.69S
6HR MIN TEMP:  49; 6HR MAX TEMP:  62;

CARO           CLOUDY    62  48  60 SW10G18   29.68F
DETROIT CITY   SUNNY     67  38  34 SW14G26   29.73F
6HR MIN TEMP:  52; 6HR MAX TEMP:  68;

DETROIT        MOSUNNY   69  38  32 SW18G31   29.75F
6HR MIN TEMP:  50; 6HR MAX TEMP:  69;

FLINT          CLOUDY    63  44  50 W16       29.71F
6HR MIN TEMP:  51; 6HR MAX TEMP:  65;

GROSSE ILE     SUNNY     69  35  28 W17G24    29.74F
6HR MIN TEMP:  53; 6HR MAX TEMP:  69;

HILLSDALE      SUNNY     66  30  26 W14G29    29.76F
HOWELL         PTSUNNY   67  43  41 SW20      29.72F
6HR MIN TEMP:  51; 6HR MAX TEMP:  67;


CITY           SKY/WX    TMP DP  RH WIND       PRES   REMARKS
JACKSON        PTSUNNY   65  44  46 W15       29.74F
6HR MIN TEMP:  52; 6HR MAX TEMP:  67;

LAMBERTVILLE   SUNNY     70  35  27 W12G23    29.77F
6HR MIN TEMP:  52; 6HR MAX TEMP:  70;

LANSING        MOSUNNY   65  39  38 W23G31    29.71F
6HR MIN TEMP:  51; 6HR MAX TEMP:  66;

LAPEER         CLOUDY    65  45  47 W12G18    29.71S
6HR MIN TEMP:  52; 6HR MAX TEMP:  65;

MASON          MOSUNNY   66  41  40 W15G22    29.72F
MONROE         SUNNY     70  37  29 W24G31    29.75F
6HR MIN TEMP:  52; 6HR MAX TEMP:  70;

MT. CLEMENS    MOSUNNY   69  41  35 SW20G25   29.71F
6HR MIN TEMP:  53; 6HR MAX TEMP:  69;

PONTIAC        PTSUNNY   64  43  46 SW15G24   29.72F
6HR MIN TEMP:  51; 6HR MAX TEMP:  65;

PORT HURON     PTSUNNY   64  43  45 SW8       29.72S
TRI CITIES     CLOUDY    63  45  51 SW18G29   29.68F
6HR MIN TEMP:  50; 6HR MAX TEMP:  63;

MIDLAND        CLOUDY    61  46  56 SW12G18   29.66F
6HR MIN TEMP:  48; 6HR MAX TEMP:  63;

TROY           MOSUNNY   69  36  29 SW20G28   29.75S
SAGINAW HB     CLOUDY    64  45  48 SW17G24   29.68S
$$
MIZ043>046-050>051-056>058-064>065-071>073-077>080-271900-
SOUTHWEST LOWER MICHIGAN

CITY           SKY/WX    TMP DP  RH WIND       PRES   REMARKS
BATTLE CREEK   SUNNY     67  39  35 W23G29    29.75S
6HR MIN TEMP:  50; 6HR MAX TEMP:  67;

BENTON HARBOR  SUNNY     68  35  29 W24G31    29.76F
6HR MIN TEMP:  61; 6HR MAX TEMP:  68;

BIG RAPIDS     RAIN      55  51  88 W8        29.68R
6HR MIN TEMP:  51; 6HR MAX TEMP:  58; 6HR PCP:  0.01;

COLDWATER      SUNNY     67  27  22 W21G30    29.76F
6HR MIN TEMP:  50; 6HR MAX TEMP:  67;

FREMONT        CLOUDY    56  43  63 W10G16    29.70S
HOLLAND        CLOUDY    60  44  55 W18G25    29.74S
6HR MIN TEMP:  60; 6HR MAX TEMP:  64;

GRAND RAPIDS   PTSUNNY   59  42  53 W20G30    29.73R
6HR MIN TEMP:  50; 6HR MAX TEMP:  64;

IONIA          PTSUNNY   63  41  45 W18G29    29.70S
6HR MIN TEMP:  50; 6HR MAX TEMP:  65;

KALAMAZOO      SUNNY     67  33  28 W20G35    29.76F
6HR MIN TEMP:  50; 6HR MAX TEMP:  67;

LUDINGTON      CLOUDY    56  47  73 W10G17    29.66F
6HR MIN TEMP:  54; 6HR MAX TEMP:  58;

MARSHALL       MOSUNNY   66  39  36 SW17G30   29.74S
6HR MIN TEMP:  49; 6HR MAX TEMP:  67;

MOUNT PLEASANT CLOUDY    60  46  59 SW15G22   29.67S
6HR MIN TEMP:  51; 6HR MAX TEMP:  61;

MUSKEGON       CLOUDY    59  45  59 W14       29.71F
6HR MIN TEMP:  58; 6HR MAX TEMP:  62;

SOUTH HAVEN    SUNNY     66  43  43 W15G24    29.75F
$$
MIZ016>042-271900-
NORTHERN LOWER MICHIGAN

CITY           SKY/WX    TMP DP  RH WIND       PRES   REMARKS
ALPENA         LGT RAIN  56  49  77 SW8       29.63R
6HR MIN TEMP:  53; 6HR MAX TEMP:  62; 6HR PCP:  0.01;

BEAVER ISLAND  CLOUDY    54  50  87 W8G17     29.56R
6HR MIN TEMP:  53; 6HR MAX TEMP:  58;

BELLAIRE       CLOUDY    55  51  86 SW3       29.61R
6HR MIN TEMP:  53; 6HR MAX TEMP:  57;

CADILLAC       CLOUDY    53  49  88 W10G16    29.64S
CHARLEVOIX     LGT RAIN  55  51  86 SW10G17   29.60F
6HR MIN TEMP:  54; 6HR MAX TEMP:  57;

FRANKFORT      CLOUDY    58  47  67 W8G21     29.62S
GAYLORD        LGT RAIN  54  49  83 SW14      29.60S
6HR MIN TEMP:  51; 6HR MAX TEMP:  54; 6HR PCP:  0.10;

GRAYLING       CLOUDY    56  48  73 W13G18    29.63S
HARBOR SPRINGS HVY RAIN  54  52  94 SW8G22    29.57S
HOUGHTON LAKE  CLOUDY    55  46  71 W12G22    29.65S
6HR MIN TEMP:  51; 6HR MAX TEMP:  56; 6HR PCP: TRACE;

MANISTEE       CLOUDY    56  48  74 W15G21    29.64S
OSCODA         CLOUDY    58  48  67 SW9       29.64R
6HR MIN TEMP:  50; 6HR MAX TEMP:  59;

PELLSTON       LGT RAIN  56  52  86 S8        29.57R
6HR MIN TEMP:  53; 6HR MAX TEMP:  57; 6HR PCP:  0.14;

ROGERS CITY    DRIZZLE   58  48  70 SW13G18   29.60S
TRAVERSE CITY  CLOUDY    58  50  75 S8        29.60S
6HR MIN TEMP:  55; 6HR MAX TEMP:  58; 6HR PCP: TRACE;

$$
MIZ007>008-015-271900-
EASTERN UPPER MICHIGAN

CITY           SKY/WX    TMP DP  RH WIND       PRES   REMARKS
KINROSS        CLOUDY    58  48  69 SW7       29.53R
6HR MIN TEMP:  51; 6HR MAX TEMP:  59; 6HR PCP: TRACE;

MACKINAC ISLAN RAIN      54  53  96 SW9G18    29.55R
NEWBERRY       LGT RAIN  52  51  97 SW8       29.54R
6HR MIN TEMP:  50; 6HR MAX TEMP:  55; 6HR PCP:  0.04;

S. S. MARIE    LGT RAIN  54  52  93 NW6       29.53R
6HR MIN TEMP:  52; 6HR MAX TEMP:  59; 6HR PCP:  0.02;

MUNISING         N/A     53  51  93 SW5       29.53R
6HR MIN TEMP:  52; 6HR MAX TEMP:  54; 6HR PCP:  0.10;

$$
MIZ004>006-011>014-085-271900-
CENTRAL UPPER MICHIGAN

CITY           SKY/WX    TMP DP  RH WIND       PRES   REMARKS
MANISTIQUE     LGT RAIN  52  50  92 SW6       29.56R
6HR MIN TEMP:  52; 6HR MAX TEMP:  56; 6HR PCP:  0.04;

ESCANABA       RAIN      51  49  92 W9        29.59R
6HR MIN TEMP:  51; 6HR MAX TEMP:  55; 6HR PCP:  0.13;

MENOMINEE      LGT RAIN  54  47  77 VRB6      29.62R
6HR MIN TEMP:  52; 6HR MAX TEMP:  58; 6HR PCP: TRACE;

SAWYER-GWINN   LGT RAIN  50  46  87 NW9       29.55R
$$
MIZ001>003-009>011-084-271900-
WESTERN UPPER MICHIGAN

CITY           SKY/WX    TMP DP  RH WIND       PRES   REMARKS
IRON MOUNTAIN  LGT RAIN  51  46  83 W10G23    29.57S
6HR MIN TEMP:  50; 6HR MAX TEMP:  52; 6HR PCP:  0.01;

HOUGHTON       CLOUDY    51  47  86 NW20      29.55R
6HR MIN TEMP:  49; 6HR MAX TEMP:  51; 6HR PCP:  0.25;

COPPER HARBOR    N/A     54  52  93 N16       29.51R
6HR MIN TEMP:  52; 6HR MAX TEMP:  54; 6HR PCP:  0.06;

IRONWOOD       LGT RAIN  49  47  93 W17G23    29.63S
6HR MIN TEMP:  48; 6HR MAX TEMP:  50; 6HR PCP:  0.41;

$$

ABBREVIATIONS USED IN REMARKS
   TC - TEMPERATURE IN CELSIUS
  WCI - WIND CHILL INDEX
   HX - HEAT INDEX
  VSB - VISIBILITY





USA.gov is the U.S. government's official web portal to all federal, state and local government web resources and services.